Location: Spruce Knob
(38.6995°N, 79.5330°W)
Time: 22:59:20
(UTC-04:00)

A-11 Canister half - Pass Details

Date: 06 February 2022
Orbit: 1513 x 1686 km, 47.2° (Epoch: 24 May)

Event Time Altitude Azimuth Distance (km) Brightness Sun altitude
Rises 13:31:44 0° 234° (SW) 4,874 12.3 34.1°
Reaches altitude 10° 13:34:54 10° 234° (SW) 3,869 12.0 33.9°
Maximum altitude 13:44:47 85° 147° (SSE) 1,602 9.8 33.3°
Drops below altitude 10° 13:54:19 10° 60° (ENE) 3,741 10.7 32.5°
Sets 13:57:20 0° 60° (ENE) 4,707 11.1 32.3°
